Brevnov, Czech Republic

10:02 PM CET on November 23, 2017 (GMT +0100)
Brevnov

Weather History for 11518 - January, 2014

Change the Weather History Date:

Thursday, January 9, 2014

  Actual Average Record
Temperature  
Mean Temperature 43 °F -  
Max Temperature 52 °F 34 °F - ()
Min Temperature 34 °F 23 °F - ()
Degree Days  
Heating Degree Days 22    
Moisture  
Dew Point 38 °F    
Average Humidity 81    
Maximum Humidity 100    
Minimum Humidity 50    
Precipitation  
Precipitation 0.01 in 0.03 in - ()
Sea Level Pressure  
Sea Level Pressure 29.93 in    
Wind  
Wind Speed 7 mph ()    
Max Wind Speed 24 mph    
Max Gust Speed 39 mph    
Visibility 7.4 miles    
Events Rain    
T = Trace of Precipitation, MM = Missing Value Source: Averaged Metar Reports

Daily Weather History Graph

Daily Weather History Graph

Search for Another Location

Airport or City:

Trip Planner

Search our weather history database for the weather conditions in past years. The results will help you decide how hot, cold, wet, or windy it might be!

Date:

Astronomy

Jan. 09, 2014 Rise Set
Actual Time 7:59 AM CET 4:20 PM CET
Civil Twilight 7:22 AM CET 4:58 PM CET
Nautical Twilight 6:41 AM CET 5:39 PM CET
Astronomical Twilight 6:02 AM CET 6:18 PM CET
Moon 11:52 AM CET (1/9) 1:32 AM CET (1/9)
Length of Visible Light 9h 36m
Length of Day
8h 20m
Waxing Gibbous, 63% of the Moon is Illuminated
Jan 9
Waxing Gibbous
Jan 16
Full
Jan 24
Last Quarter
Jan 30
New
Feb 6
First Quarter

Hourly Weather History & Observations

Time (CET) Temp. Windchill Dew Point Humidity Pressure Visibility Wind Dir Wind Speed Gust Speed Precip Events Conditions
12:00 AM 42 °F - 39 °F 85% 30.17 in 16 mi SW 11.2 mph - -   Scattered Clouds
12:00 AM 42.8 °F 36.6 °F 39.2 °F 87% 30.12 in - SSW 11.5 mph - N/A   Clear
12:30 AM 42.8 °F 37.0 °F 39.2 °F 87% 30.12 in - SSW 10.4 mph - N/A   Clear
1:00 AM 40 °F - 38 °F 89% 30.15 in 12 mi SSW 8.9 mph - -   Scattered Clouds
1:00 AM 41.0 °F 34.7 °F 37.4 °F 87% 30.09 in - SSW 10.4 mph - N/A   Clear
1:30 AM 41.0 °F 37.1 °F 39.2 °F 93% 30.09 in - SSW 5.8 mph - N/A   Clear
2:00 AM 41 °F - 39 °F 92% 30.13 in 9 mi South 4.5 mph - -   Scattered Clouds
2:00 AM 41.0 °F 39.0 °F 39.2 °F 93% 30.09 in - South 3.5 mph - N/A   Clear
2:30 AM 39.2 °F 35.9 °F 37.4 °F 93% 30.09 in - SSE 4.6 mph - N/A   Clear
3:00 AM 37 °F - 35 °F 90% 30.14 in 9 mi SE 6.7 mph - -   Partly Cloudy
3:00 AM 37.4 °F 32.8 °F 35.6 °F 93% 30.06 in - SSE 5.8 mph - N/A   Clear
3:30 AM 41.0 °F - 39.2 °F 93% 30.06 in - Variable 2.3 mph - N/A   Clear
4:00 AM 38 °F - 36 °F 92% 30.11 in 9 mi SSE 2.2 mph - -   Mostly Cloudy
4:00 AM 39.2 °F - 37.4 °F 93% 30.06 in - South 2.3 mph - N/A   Clear
4:30 AM 37.4 °F 33.8 °F 35.6 °F 93% 30.04 in 6.2 mi SSE 4.6 mph - N/A   Unknown
5:00 AM 36 °F - 35 °F 97% 30.09 in 6 mi South 4.5 mph - -   Mist
5:00 AM 35.6 °F 30.7 °F 35.6 °F 100% 30.04 in 5.6 mi SSE 5.8 mph - N/A   Unknown
5:30 AM 37.4 °F 32.8 °F 35.6 °F 93% 30.01 in 5.6 mi SSE 5.8 mph - N/A   Unknown
6:00 AM 36 °F - 35 °F 97% 30.07 in 6 mi SE 2.2 mph - -   Mist
6:00 AM 35.6 °F - 35.6 °F 100% 30.01 in 5.6 mi Calm Calm - N/A   Unknown
6:30 AM 37.4 °F - 35.6 °F 93% 30.01 in 5.6 mi East 2.3 mph - N/A   Unknown
7:00 AM 37 °F - 36 °F 95% 30.05 in 6 mi SE 4.5 mph - - Rain Light Rain
7:00 AM 37.4 °F - 35.6 °F 93% 30.01 in 5.6 mi Variable 1.2 mph - N/A   Unknown
7:01 AM 37.4 °F - 35.6 °F 93% 29.98 in 5.6 mi Variable 2.3 mph - N/A Rain Light Rain
7:30 AM 37.4 °F 34.9 °F 37.4 °F 100% 29.98 in 4.3 mi SSE 3.5 mph - N/A Rain Light Rain
8:00 AM 38 °F - 38 °F 99% 30.04 in 4 mi SSE 2.2 mph - - Rain Light Rain
8:00 AM 39.2 °F 37.0 °F 37.4 °F 93% 29.98 in 4.3 mi SSE 3.5 mph - N/A Rain Light Rain
8:30 AM 39.2 °F - 37.4 °F 93% 29.98 in 4.3 mi Calm Calm - N/A Rain Light Rain
8:49 AM 39.2 °F - 37.4 °F 93% 29.98 in 3.1 mi Variable 1.2 mph - N/A   Partly Cloudy
9:00 AM 39 °F - 38 °F 97% 30.02 in 4 mi South 2.2 mph - - Rain Light Rain
9:00 AM 39.2 °F - 39.2 °F 100% 29.98 in 4.3 mi Variable 2.3 mph - N/A   Partly Cloudy
9:30 AM 41.0 °F 38.0 °F 39.2 °F 93% 29.95 in 4.3 mi ESE 4.6 mph - N/A   Partly Cloudy
10:00 AM 43 °F - 42 °F 92% 29.98 in 6 mi SSE 4.5 mph - -   Mist
10:00 AM 42.8 °F 41.1 °F 41.0 °F 93% 29.95 in 5.6 mi SSE 3.5 mph - N/A   Unknown
10:30 AM 44.6 °F - 41.0 °F 87% 29.95 in - Variable 1.2 mph - N/A   Clear
11:00 AM 45 °F - 42 °F 84% 29.96 in 6 mi SSE 2.2 mph - -   Mist
11:00 AM 44.6 °F - 41.0 °F 87% 29.92 in 5.6 mi Calm Calm - N/A   Unknown
11:30 AM 44.6 °F - 42.8 °F 93% 29.92 in 5.6 mi Variable 1.2 mph - N/A   Unknown
12:00 PM 44 °F - 42 °F 89% 29.94 in 6 mi SW 2.2 mph - -   Mist
12:00 PM 44.6 °F - 42.8 °F 93% 29.89 in 5.6 mi Variable 1.2 mph - N/A   Unknown
12:30 PM 46.4 °F 45.2 °F 42.8 °F 87% 29.86 in - SE 3.5 mph - N/A   Clear
1:00 PM 47 °F - 43 °F 81% 29.90 in 6 mi SSW 4.5 mph - -   Partly Cloudy
1:00 PM 46.4 °F 45.2 °F 42.8 °F 87% 29.86 in - SSW 3.5 mph - N/A   Clear
1:30 PM 46.4 °F 45.2 °F 42.8 °F 87% 29.86 in - SW 3.5 mph - N/A   Clear
2:00 PM 51 °F - 43 °F 66% 29.85 in 12 mi SW 13.4 mph - -   Partly Cloudy
2:00 PM 51.8 °F - 42.8 °F 71% 29.83 in - SW 10.4 mph - N/A   Clear
2:30 PM 51.8 °F - 41.0 °F 67% 29.83 in - SW 15.0 mph - N/A   Clear
3:00 PM 51 °F - 41 °F 60% 29.83 in 16 mi SW 13.4 mph - -   Partly Cloudy
3:00 PM 51.8 °F - 41.0 °F 67% 29.80 in - SSW 12.7 mph - N/A   Clear
3:30 PM 51.8 °F - 39.2 °F 62% 29.80 in - SSW 19.6 mph - N/A   Clear
4:00 PM 52 °F - 39 °F 50% 29.82 in 22 mi SSW 15.7 mph - -   Mostly Cloudy
4:00 PM 51.8 °F - 39.2 °F 62% 29.80 in - SSW 16.1 mph - N/A   Clear
4:30 PM 50.0 °F - 39.2 °F 66% 29.80 in - SSW 16.1 mph - N/A   Clear
5:00 PM 49 °F - 38 °F 55% 29.82 in 22 mi SSW 13.4 mph - -   Scattered Clouds
5:00 PM 50.0 °F - 37.4 °F 62% 29.80 in - SSW 13.8 mph - N/A   Clear
5:30 PM 48.2 °F - 37.4 °F 66% 29.77 in - SSW 13.8 mph - N/A   Clear
6:00 PM 47 °F - 37 °F 58% 29.81 in 22 mi SSW 11.2 mph - -   Scattered Clouds
6:00 PM 48.2 °F - 37.4 °F 66% 29.77 in - SSW 13.8 mph - N/A   Clear
6:30 PM 46.4 °F 41.1 °F 37.4 °F 71% 29.77 in - South 11.5 mph - N/A   Clear
7:00 PM 47 °F - 37 °F 57% 29.78 in 19 mi South 6.7 mph - -   Clear
7:00 PM 46.4 °F 41.5 °F 37.4 °F 71% 29.77 in - South 10.4 mph - N/A   Clear
7:30 PM 48.2 °F - 35.6 °F 62% 29.74 in - SSE 10.4 mph - N/A   Clear
8:00 PM 45 °F - 37 °F 65% 29.76 in 19 mi ESE 6.7 mph - -   Mostly Cloudy
8:00 PM 44.6 °F 40.2 °F 37.4 °F 76% 29.74 in - ESE 8.1 mph - N/A   Clear
8:30 PM 48.2 °F - 37.4 °F 66% 29.71 in - SSE 5.8 mph - N/A   Clear
9:00 PM 48.2 °F - 35.6 °F 62% 29.71 in - SSW 10.4 mph - N/A   Clear
9:30 PM 48.2 °F - 35.6 °F 62% 29.71 in - SW 12.7 mph - N/A   Clear
10:00 PM 51.8 °F - 35.6 °F 54% 29.71 in - SW 16.1 mph - N/A   Clear
10:30 PM 51.8 °F - 35.6 °F 54% 29.71 in - WSW 21.9 mph 33.4 mph N/A   Clear
11:00 PM 51.8 °F - 37.4 °F 58% 29.71 in - WSW 24.2 mph 39.1 mph N/A   Clear